Location: Santaluz Observatory
(32.9930°N, 117.1510°W)
Time: 01:15:36
(UTC-07:00)

Hubble Space Telescope - Visible Passes

Search period start: 26 April 2015 00:00
Search period end: 06 May 2015 00:00
Orbit: 542 x 546 km, 28.5° (Epoch: 25 April)

Date Brightness Start Highest point End Pass type
(mag) Time Alt. Az. Time Alt. Az. Time Alt. Az.
26 Apr 3.1 04:23:08 12° SSE 04:23:08 12° SSE 04:23:38 10° SSE visible
28 Apr 3.2 21:08:15 10° SSW 21:08:23 11° SSW 21:08:23 11° SSW visible
29 Apr 2.5 20:59:10 10° SSW 21:01:04 18° S 21:01:04 18° S visible
30 Apr 2.0 20:50:15 10° SW 20:53:36 25° SSE 20:53:36 25° SSE visible
01 May 1.7 20:41:24 10° SW 20:45:01 29° SSE 20:45:59 26° SE visible
02 May 1.6 20:32:37 10° SW 20:36:23 33° SSE 20:38:13 23° ESE visible
02 May 3.6 22:13:27 10° WSW 22:13:42 11° WSW 22:13:42 11° WSW visible
03 May 1.5 20:23:53 10° WSW 20:27:44 38° S 20:30:20 18° ESE visible
03 May 3.2 22:04:51 10° WSW 22:05:48 16° WSW 22:05:48 16° WSW visible
04 May 1.4 20:15:11 10° WSW 20:19:07 41° S 20:22:20 14° ESE visible
04 May 2.8 21:56:16 10° WSW 21:57:49 21° WSW 21:57:49 21° WSW visible
05 May 1.3 20:06:31 10° WSW 20:10:28 43° S 20:14:17 11° ESE visible
05 May 2.5 21:47:41 10° WSW 21:49:44 25° WSW 21:49:44 25° WSW visible
